Weather History for Crestview, FL

Change the Weather History Date:

Thursday, February 27, 2014

  Actual Average Record
Temperature  
Mean Temperature 42 °F -  
Max Temperature 54 °F - - ()
Min Temperature 30 °F - - ()
Degree Days  
Heating Degree Days 22    
Moisture  
Dew Point 21 °F    
Average Humidity 51    
Maximum Humidity 85    
Minimum Humidity 19    
Precipitation  
Precipitation 0.00 in - - ()
Sea Level Pressure  
Sea Level Pressure 30.03 in    
Wind  
Wind Speed 9 mph (North)    
Max Wind Speed 13 mph    
Max Gust Speed 18 mph    
Visibility 10 miles    
Events      
T = Trace of Precipitation, MM = Missing Value Source: NWS Daily Summary

Daily Weather History Graph

Daily Weather History Graph

Search for Another Location

Airport:

Trip Planner

Search our weather history database for the weather conditions in past years. The results will help you decide how hot, cold, wet, or windy it might be!

Date:

Astronomy

Feb. 27, 2014 Rise Set
Actual Time 6:14 AM CST 5:43 PM CST
Civil Twilight 5:50 AM CST 6:07 PM CST
Nautical Twilight 5:22 AM CST 6:35 PM CST
Astronomical Twilight 4:54 AM CST 7:03 PM CST
Moon 4:41 AM CST 4:11 PM CST
Length of Visible Light 12h 17m
Length of Day
11h 28m
Waning Crescent, 4% of the Moon is Illuminated
Feb 27
Waning Crescent
Mar 1
New
Mar 8
First Quarter
Mar 16
Full
Mar 23
Last Quarter

Hourly Weather History & Observations

Time (CST) Temp. Windchill Dew Point Humidity Pressure Visibility Wind Dir Wind Speed Gust Speed Precip Events Conditions
12:58 AM 39.2 °F 33.0 °F 28.6 °F 66% 30.00 in 10.0 mi NNW 9.2 mph - N/A   Clear
1:58 AM 38.7 °F 31.4 °F 28.6 °F 67% 29.99 in 10.0 mi NNW 11.5 mph - N/A   Scattered Clouds
2:58 AM 37.9 °F 30.0 °F 27.9 °F 67% 29.99 in 10.0 mi NNW 12.7 mph - N/A   Clear
3:58 AM 37.2 °F 29.1 °F 26.6 °F 65% 30.01 in 10.0 mi NNW 12.7 mph - N/A   Scattered Clouds
4:58 AM 36.1 °F 29.3 °F 24.6 °F 63% 30.03 in 10.0 mi North 9.2 mph 18.4 mph N/A   Clear
5:58 AM 34.7 °F 26.9 °F 21.9 °F 60% 30.03 in 10.0 mi North 10.4 mph - N/A   Clear
6:58 AM 33.3 °F 25.7 °F 19.2 °F 56% 30.06 in 10.0 mi North 9.2 mph - N/A   Clear
7:58 AM 35.1 °F 26.4 °F 18.3 °F 51% 30.07 in 10.0 mi North 12.7 mph - N/A   Clear
8:55 AM 39.2 °F 31.6 °F 14.2 °F 36% 30.07 in 10.0 mi North 12.7 mph 18.4 mph N/A   Scattered Clouds
9:55 AM 42.6 °F 36.8 °F 12.0 °F 29% 30.08 in 10.0 mi North 10.4 mph - N/A   Scattered Clouds
10:55 AM 46.8 °F - 12.9 °F 26% 30.07 in 10.0 mi NNW 9.2 mph 17.3 mph N/A   Scattered Clouds
11:55 AM 49.3 °F - 12.2 °F 23% 30.04 in 10.0 mi NNE 11.5 mph - N/A   Scattered Clouds
12:55 PM 51.8 °F - 13.8 °F 22% 30.02 in 10.0 mi NNE 9.2 mph - N/A   Scattered Clouds
1:55 PM 52.7 °F - 13.1 °F 21% 30.00 in 10.0 mi North 6.9 mph - N/A   Scattered Clouds
2:55 PM 53.8 °F - 12.0 °F 19% 30.00 in 10.0 mi NNW 9.2 mph - N/A   Mostly Cloudy
3:55 PM 54.7 °F - 15.6 °F 21% 29.98 in 10.0 mi WNW 8.1 mph - N/A   Mostly Cloudy
4:56 PM 53.6 °F - 16.7 °F 23% 29.98 in 10.0 mi North 8.1 mph - N/A   Scattered Clouds
5:55 PM 47.3 °F - 23.5 °F 39% 29.98 in 10.0 mi NNW 1.2 mph - N/A   Partly Cloudy
6:55 PM 39.6 °F - 27.9 °F 63% 30.01 in 10.0 mi Calm Calm - N/A   Clear
7:56 PM 37.0 °F - 27.3 °F 68% 30.04 in 10.0 mi NNW 2.3 mph - N/A   Clear
8:58 PM 33.3 °F - 28.0 °F 81% 30.04 in 10.0 mi NNW 1.2 mph - N/A   Clear
9:56 PM 33.3 °F - 27.9 °F 81% 30.05 in 10.0 mi NNE 1.2 mph - N/A   Clear
10:57 PM 31.5 °F - 27.3 °F 85% 30.06 in 10.0 mi Calm Calm - N/A   Clear
11:55 PM 30.4 °F - 25.9 °F 83% 30.03 in 10.0 mi Calm Calm - N/A   Clear